| time (UTC) | temp F | wind direction | speed knots | gust knots | rain 1hr in | rain 24hr in | rain mn in | humidity % | barometer mb |
| 20260503203049 | 57 | 61 | 0.9 | 4.3 | 0.00 | 0.00 | 0.00 | 33 | 1011.3 |
| 20260503201543 | 58 | 22 | 0.9 | 7.0 | 0.00 | 0.00 | 0.00 | 34 | 1011.3 |
| 20260503200037 | 57 | 33 | 1.7 | 13.0 | 0.00 | 0.00 | 0.00 | 33 | 1011.1 |
| 20260503194534 | 56 | 27 | 0.9 | 4.3 | 0.00 | 0.00 | 0.00 | 36 | 1011.5 |
| 20260503193033 | 57 | 69 | 0.9 | 7.8 | 0.00 | 0.00 | 0.00 | 40 | 1011.6 |
| 20260503191537 | 56 | 76 | 1.7 | 5.2 | 0.00 | 0.00 | 0.00 | 38 | 1011.7 |
| 20260503190035 | 56 | 355 | 1.7 | 5.2 | 0.00 | 0.00 | 0.00 | 36 | 1011.9 |
| 20260503184529 | 56 | 61 | 0.9 | 8.7 | 0.00 | 0.00 | 0.00 | 42 | 1012.1 |
| 20260503183029 | 55 | 282 | 0.9 | 9.6 | 0.00 | 0.00 | 0.00 | 36 | 1012.1 |
| 20260503181528 | 55 | 46 | 0.9 | 7.8 | 0.00 | 0.00 | 0.00 | 37 | 1012.2 |
| 20260503180040 | 55 | 266 | 0.0 | 8.7 | 0.00 | 0.00 | 0.00 | 41 | 1012.0 |
| 20260503174528 | 54 | 286 | 1.7 | 7.8 | 0.00 | 0.00 | 0.00 | 37 | 1012.1 |
| 20260503173027 | 56 | 40 | 2.6 | 7.0 | 0.00 | 0.00 | 0.00 | 35 | 1012.0 |
| 20260503171526 | 55 | 267 | 0.9 | 6.1 | 0.00 | 0.00 | 0.00 | 37 | 1012.2 |
| 20260503081537 | 43 | 26 | 0.0 | 4.3 | 0.00 | 0.05 | 0.00 | 62 | 1012.0 |
| 20260503071530 | 45 | 13 | 0.0 | 1.7 | 0.00 | 0.05 | 0.00 | 59 | 1011.9 |
| 20260503054518 | 47 | 265 | 0.0 | 1.7 | 0.00 | 0.05 | 0.00 | 56 | 1012.3 |
| 20260503053014 | 47 | 265 | 0.0 | 2.6 | 0.00 | 0.05 | 0.00 | 56 | 1012.5 |
| 20260503051513 | 47 | 265 | 0.0 | 1.7 | 0.00 | 0.05 | 0.00 | 55 | 1012.7 |
| 20260503050010 | 47 | 265 | 0.0 | 0.0 | 0.00 | 0.05 | 0.00 | 57 | 1012.7 |
| 20260503044611 | 47 | 265 | 0.0 | 0.9 | 0.00 | 0.05 | 0.00 | 55 | 1012.9 |
| 20260503043020 | 48 | 265 | 0.0 | 0.0 | 0.00 | 0.05 | 0.00 | 59 | 1013.0 |
| 20260503041505 | 48 | 265 | 0.0 | 0.0 | 0.00 | 0.05 | 0.00 | 60 | 1012.9 |
| 20260503040003 | 48 | 265 | 0.0 | 1.7 | 0.00 | 0.05 | 0.05 | 61 | 1012.8 |
| 20260503034503 | 47 | 265 | 0.0 | 0.9 | 0.00 | 0.05 | 0.05 | 69 | 1012.8 |
| 20260503033009 | 47 | 265 | 0.0 | 0.0 | 0.00 | 0.05 | 0.05 | 67 | 1012.6 |
| 20260503031502 | 47 | 265 | 0.0 | 0.0 | 0.00 | 0.05 | 0.05 | 71 | 1012.5 |
| 20260503030002 | 48 | 265 | 0.0 | 0.0 | 0.00 | 0.05 | 0.05 | 74 | 1012.6 |
| 20260503024503 | 48 | 265 | 0.0 | 0.0 | 0.00 | 0.05 | 0.05 | 72 | 1012.4 |
| 20260503023104 | 49 | 265 | 0.0 | 0.0 | 0.00 | 0.05 | 0.05 | 69 | 1012.5 |
| 20260503021603 | 49 | 265 | 0.0 | 0.0 | 0.00 | 0.05 | 0.05 | 71 | 1012.8 |
| 20260503014607 | 50 | 265 | 0.0 | 0.0 | 0.00 | 0.05 | 0.05 | 64 | 1012.8 |
| 20260503013058 | 50 | 265 | 0.0 | 0.0 | 0.00 | 0.05 | 0.05 | 57 | 1012.8 |
| 20260503011604 | 50 | 265 | 0.0 | 0.0 | 0.00 | 0.05 | 0.05 | 62 | 1012.8 |
| 20260503010103 | 50 | 265 | 0.0 | 0.0 | 0.00 | 0.05 | 0.05 | 69 | 1012.5 |
| 20260503004607 | 50 | 265 | 0.0 | 0.0 | 0.00 | 0.05 | 0.05 | 67 | 1012.4 |
| 20260503003110 | 51 | 265 | 0.0 | 0.0 | 0.00 | 0.05 | 0.05 | 64 | 1012.2 |
| 20260503001655 | 52 | 265 | 0.0 | 0.0 | 0.00 | 0.05 | 0.05 | 62 | 1012.2 |
| 20260503000054 | 53 | 265 | 0.0 | 0.0 | 0.00 | 0.05 | 0.05 | 62 | 1012.1 |
| 20260502234554 | 53 | 265 | 0.0 | 0.0 | 0.00 | 0.05 | 0.05 | 55 | 1011.9 |
| 20260502233054 | 55 | 265 | 0.0 | 0.0 | 0.00 | 0.05 | 0.05 | 57 | 1011.8 |
| 20260502231553 | 56 | 265 | 0.0 | 0.0 | 0.00 | 0.05 | 0.05 | 52 | 1011.7 |
| 20260502230053 | 57 | 265 | 0.0 | 0.0 | 0.00 | 0.05 | 0.05 | 49 | 1011.6 |
| 20260502224552 | 58 | 265 | 0.0 | 1.7 | 0.00 | 0.05 | 0.05 | 42 | 1011.5 |
| 20260502223052 | 58 | 265 | 0.0 | 3.5 | 0.00 | 0.05 | 0.05 | 42 | 1011.4 |
| 20260502221650 | 58 | 262 | 0.0 | 1.7 | 0.00 | 0.05 | 0.05 | 45 | 1011.3 |
| 20260502220050 | 58 | 28 | 0.0 | 1.7 | 0.00 | 0.05 | 0.05 | 46 | 1011.2 |
| 20260502214548 | 58 | 78 | 0.0 | 1.7 | 0.00 | 0.05 | 0.05 | 46 | 1011.3 |
| 20260502213101 | 58 | 128 | 0.0 | 1.7 | 0.00 | 0.05 | 0.05 | 48 | 1011.3 |
| 20260502211547 | 58 | 55 | 0.0 | 1.7 | 0.00 | 0.05 | 0.05 | 51 | 1011.3 |
| 20260502210046 | 58 | 20 | 0.9 | 4.3 | 0.00 | 0.05 | 0.05 | 48 | 1011.2 |
| 20260502204546 | 58 | 9 | 0.0 | 2.6 | 0.00 | 0.05 | 0.05 | 49 | 1011.2 |